FW7258 Weather Reports


time (UTC)temp
F
wind
direction
speed
knots
gust
knots
rain 1hr
in
rain 24hr
in
rain mn
in
humidity
%
barometer
mb
20260510054116 54 182 0.9 2.6 0.00 0.76 0.00 82 1010.3
20260510053117 54 180 1.7 2.6 0.00 0.77 0.00 82 1010.2
20260510051215 55 180 2.6 3.5 0.00 0.80 0.00 82 1009.9
20260510050219 55 210 0.9 2.6 0.00 0.82 0.00 82 1009.7
20260510045217 55 180 3.5 4.3 0.01 0.82 0.00 82 1009.6
20260510043234 55 180 1.7 2.6 0.04 0.84 0.00 82 1009.7
20260510042216 55 180 2.6 2.6 0.05 0.84 0.00 81 1009.9
20260510041315 55 156 1.7 2.6 0.05 0.84 0.00 81 1010.0
20260510040319 55 189 2.6 3.5 0.05 0.86 0.00 80 1010.1
20260510035326 55 157 0.0 1.7 0.04 0.85 0.85 81 1010.0
20260510034325 55 214 4.3 7.0 0.05 0.84 0.84 81 1010.4
20260510033326 55 194 1.7 2.6 0.04 0.82 0.82 81 1010.2
20260510032328 55 184 0.9 2.6 0.03 0.82 0.81 81 1010.0
20260510031426 55 177 2.6 3.5 0.03 0.82 0.81 80 1009.9
20260510025427 55 244 1.7 3.5 0.04 0.84 0.81 81 1009.8
20260510023425 55 215 2.6 3.5 0.02 0.83 0.78 82 1009.3
20260510023326 55 205 2.6 4.3 0.01 0.82 0.78 82 1009.2
20260510022425 55 180 2.6 3.5 0.01 0.83 0.78 82 1009.2
20260510020442 55 180 2.6 3.5 0.00 0.83 0.77 81 1009.1
20260510015427 55 180 1.7 1.7 0.00 0.83 0.77 81 1009.0
20260510014526 55 180 0.9 1.7 0.00 0.84 0.77 81 1009.0
20260510012527 55 157 0.9 2.6 0.00 0.85 0.77 80 1008.8
20260510011526 55 190 1.7 2.6 0.01 0.87 0.77 80 1008.8
20260510010526 55 180 1.7 3.5 0.03 0.87 0.77 80 1008.6
20260510005527 55 162 2.6 4.3 0.07 0.88 0.77 80 1008.6
20260510004625 55 181 0.9 2.6 0.16 0.89 0.77 80 1008.7
20260510002644 55 219 2.6 5.2 0.40 0.91 0.77 80 1008.5
20260510001725 55 269 0.9 2.6 0.39 0.91 0.76 80 1008.9
20260510000742 55 329 1.7 2.6 0.37 0.92 0.74 80 1009.1
20260509235825 55 297 4.3 7.0 0.34 0.91 0.71 79 1009.0
20260509234827 56 315 5.2 11.3 0.28 0.86 0.65 79 1008.5
20260509233826 60 312 5.2 10.4 0.11 0.69 0.47 70 1008.4
20260509232826 66 305 6.1 8.7 0.00 0.57 0.37 55 1007.6
20260509231828 67 212 3.5 8.7 0.00 0.57 0.37 53 1006.4
20260509230827 67 189 5.2 9.6 0.00 0.57 0.37 53 1006.2
20260509224828 67 191 6.1 12.2 0.00 0.57 0.37 51 1006.0
20260509223925 68 179 4.3 11.3 0.00 0.57 0.37 51 1005.8
20260509222925 68 190 5.2 11.3 0.00 0.59 0.37 51 1006.1
20260509221926 68 212 6.1 8.7 0.00 0.59 0.37 50 1006.0
20260509221025 68 180 3.5 5.2 0.00 0.59 0.37 49 1006.1
20260509220027 68 187 6.1 8.7 0.00 0.59 0.37 48 1006.1
20260509215927 68 198 4.3 8.7 0.00 0.59 0.37 48 1006.0
20260509215025 68 176 7.8 13.0 0.00 0.59 0.37 49 1006.1
20260509214043 68 179 4.3 6.1 0.00 0.59 0.37 50 1006.0
20260509213128 68 192 6.1 9.6 0.00 0.59 0.37 50 1006.1
20260509211126 69 191 4.3 12.2 0.00 0.59 0.37 49 1006.3
20260509210127 68 212 3.5 6.1 0.00 0.59 0.37 51 1006.4
20260509204225 67 181 5.2 10.4 0.00 0.62 0.37 52 1006.7
20260509201424 67 207 2.6 4.3 0.00 0.63 0.37 52 1006.9
20260509200427 67 178 7.8 13.0 0.00 0.63 0.37 54 1007.0
20260509193527 67 196 1.7 4.3 0.00 0.63 0.37 53 1007.4
20260509192525 67 182 8.7 12.2 0.00 0.63 0.37 52 1007.8
20260509191527 67 194 4.3 10.4 0.00 0.63 0.37 54 1008.0
20260509190528 66 183 4.3 8.7 0.00 0.63 0.37 54 1008.0
20260509184527 66 204 6.1 11.3 0.00 0.63 0.37 55 1008.0
20260509183526 65 191 5.2 7.8 0.00 0.63 0.37 56 1008.2
20260509182625 65 259 3.5 7.8 0.00 0.63 0.37 57 1008.2
20260509181625 64 177 6.1 10.4 0.00 0.63 0.37 59 1008.2
20260509175627 65 182 5.2 9.6 0.00 0.63 0.37 59 1008.2
20260509174626 63 239 3.5 5.2 0.00 0.64 0.37 61 1008.4
20260509172626 63 197 3.5 4.3 0.00 0.64 0.37 62 1008.3
20260509171627 62 201 4.3 9.6 0.00 0.64 0.37 63 1008.2
20260509165625 62 277 4.3 9.6 0.00 0.64 0.37 62 1008.6
20260509164725 62 172 3.5 6.1 0.00 0.64 0.37 65 1008.6
20260509163728 61 193 1.7 6.1 0.00 0.64 0.37 64 1008.7
20260509162726 61 209 3.5 8.7 0.01 0.64 0.37 67 1008.7
20260509161726 61 154 2.6 5.2 0.01 0.64 0.37 68 1008.8
20260509160725 61 187 3.5 6.1 0.01 0.64 0.37 69 1008.8
20260509154741 59 175 3.5 6.1 0.01 0.64 0.37 73 1008.8
20260509153825 59 205 5.2 8.7 0.01 0.64 0.37 75 1008.7
20260509152825 58 177 4.3 6.1 0.00 0.63 0.36 76 1008.7
20260509151925 57 252 2.6 5.2 0.00 0.63 0.36 77 1008.8
20260509145942 56 198 0.9 2.6 0.00 0.63 0.36 79 1008.7
20260509144924 56 159 3.5 4.3 0.00 0.63 0.36 80 1008.8
20260509143926 56 180 1.7 3.5 0.00 0.63 0.36 80 1008.8
20260509142025 55 157 1.7 2.6 0.00 0.63 0.36 81 1008.7
20260509140026 54 234 0.0 1.7 0.00 0.63 0.36 82 1008.6
20260509135024 54 245 1.7 3.5 0.00 0.63 0.36 82 1008.7
20260509134024 54 158 3.5 7.8 0.00 0.63 0.36 82 1008.6
20260509133042 54 195 0.9 1.7 0.00 0.63 0.36 82 1008.8
20260509132026 53 160 0.9 1.7 0.00 0.63 0.36 82 1008.7
20260509131125 53 182 1.7 3.5 0.00 0.64 0.36 82 1008.7
20260509125125 53 202 0.9 1.7 0.00 0.64 0.36 83 1009.0
20260509124124 53 248 0.9 3.5 0.00 0.64 0.36 81 1009.1
20260509124027 53 228 3.5 5.2 0.00 0.64 0.36 81 1009.1
20260509122125 53 189 1.7 4.3 0.00 0.64 0.36 83 1009.1
20260509121126 53 180 2.6 3.5 0.00 0.64 0.36 82 1009.1
20260509120125 53 233 0.9 3.5 0.00 0.64 0.36 82 1009.2
20260509115126 53 225 0.9 0.9 0.00 0.64 0.36 83 1009.2
20260509114140 52 180 1.7 2.6 0.00 0.64 0.36 82 1009.1
20260509113142 52 185 2.6 4.3 0.00 0.64 0.36 82 1009.1
20260509112224 52 157 1.7 2.6 0.00 0.64 0.36 83 1009.1
20260509111324 52 181 1.7 3.5 0.00 0.64 0.36 83 1008.9
20260509110325 52 170 1.7 4.3 0.00 0.64 0.36 83 1008.7
20260509104424 52 173 0.9 1.7 0.00 0.64 0.36 83 1008.7
20260509103424 52 185 1.7 2.6 0.00 0.64 0.36 83 1008.8
20260509102441 52 163 1.7 3.5 0.00 0.64 0.36 83 1008.6
20260509101526 52 160 0.9 1.7 0.00 0.64 0.36 83 1008.7
20260509100524 52 201 0.9 1.7 0.00 0.64 0.36 83 1008.8
20260509095525 52 150 1.7 2.6 0.00 0.64 0.36 83 1008.8
20260509093623 52 180 1.7 2.6 0.02 0.64 0.36 83 1009.0
20260509092624 52 166 1.7 3.5 0.02 0.64 0.36 83 1009.1
20260509091642 52 180 0.0 1.7 0.03 0.64 0.36 83 1009.1
20260509084625 52 180 1.7 2.6 0.07 0.63 0.35 83 1009.4
20260509083624 52 163 2.6 4.3 0.08 0.62 0.34 83 1009.5
20260509082641 52 168 2.6 3.5 0.11 0.62 0.34 83 1009.5
20260509081725 52 165 3.5 4.3 0.12 0.61 0.33 83 1009.6
20260509075823 52 180 1.7 2.6 0.12 0.59 0.30 83 1009.7
20260509074842 52 180 0.9 2.6 0.12 0.57 0.28 83 1009.6
20260509073826 52 172 3.5 5.2 0.11 0.55 0.26 82 1009.4
20260509072842 51 181 2.6 4.3 0.08 0.52 0.23 83 1009.6
20260509070927 51 218 1.7 2.6 0.07 0.49 0.20 83 1009.8
20260509070024 51 172 2.6 4.3 0.06 0.47 0.18 83 1009.8
20260509065925 51 181 1.7 2.6 0.06 0.47 0.18 82 1009.9
20260509064925 51 180 0.9 1.7 0.05 0.45 0.16 83 1009.9
20260509062925 51 187 1.7 2.6 0.07 0.44 0.15 82 1009.9
20260509060925 51 178 2.6 2.6 0.07 0.42 0.13 82 1010.3
20260509055926 51 202 0.9 1.7 0.08 0.41 0.12 82 1010.6